SCP
0 0 0 0 0 0 -0 -0 0 0 0 0 0 0 0 0 0 0 0 0 0 0
0 0 0 0 0 0 0 -0 0 0 0 0 0 0 0 0 0 0 0 0 0 0
0 0 0 0 0 0 -0 0 -0 0 0 0 0 0 0 0 0 0 0 0 0 0
0 0 0 0 0 0 -0 0 0 0 0 0 0 0 0 0 0 0 0 0 0 0
0 0 0 0 -0 0 0 0 0 0 0 0 0 0 0 0 0 0 0 0 0 0
0 0 0 0 0 -0 0 0 0 0 0 0 0 0 0 0 0 0 0 0 0 0
0 0 0 0 0 0 0 0 0 0 0 0 0 0 0 0 0 0 0 0 0 0
0 0 0 0 0 0 0 0 -0 0 0 0 0 0 0 0 0 0 0 0 0 0
0 0 0 0 0 0 0 0 0 0 0 0 -0 -0 -0 0 0 0 0 0 0 0
0 0 0 0 0 0 0 0 0 0 0 0 0 0 0 0 0 0 0 0 0 -0
0 0 0 0 0 0 0 0 0 0 0 0 0 0 0 0 0 0 0 0 0 0
0 0 0 0 0 0 0 0 0 0 0 0 -0 0 0 0 0 0 0 -0 0 0
0 0 0 0 0 0 0 0 0 0 0 0 0 0 0 0 0 -0 -0 -0 -0 0
0 0 0 0 0 0 0 0 0 0 0 0 0 0 -0 -0 -0 -0 -0 -0 -0 -0
Wind_Speed_500mb
12 12 17 16 13 5 8 13 13 26 31 30 29 30 33 36 36 38 38 38 37 41
12 10 16 19 11 7 13 14 14 22 30 33 30 31 32 32 31 36 40 38 35 40
12 11 14 14 12 12 10 15 17 22 28 33 35 33 34 31 33 43 39 38 36 35
10 13 14 15 12 14 14 15 19 21 28 33 35 37 40 36 38 43 35 34 34 37
9 12 15 23 16 15 12 16 16 23 23 31 35 38 37 37 37 40 44 34 32 36
7 9 14 24 24 22 20 24 19 21 24 28 35 38 38 36 41 43 31 25 31 39
10 11 17 19 27 33 28 25 22 25 22 27 29 33 32 40 51 39 27 25 35 51
13 19 23 22 19 22 21 23 25 19 24 23 25 22 31 43 51 37 40 36 44 50
23 28 23 21 22 19 18 18 20 17 19 15 16 33 28 31 48 46 37 40 48 39
28 31 25 22 28 20 16 16 13 21 29 16 17 20 41 41 36 34 36 41 58 49
29 36 30 27 25 22 16 10 14 23 23 22 29 34 33 32 31 45 44 53 62 59
27 41 38 34 30 26 21 14 19 21 22 26 31 31 30 30 34 43 58 61 51 50
23 39 36 40 34 29 23 17 21 25 21 19 26 30 30 32 37 44 59 52 40 37
28 30 35 42 38 33 27 20 21 27 28 24 21 26 30 33 38 43 46 43 41 40
Wind_Direction_500mb
40 41 28 24 18 97 156 139 140 167 170 168 169 170 173 181 183 186 189 193 201 184
28 18 21 30 31 82 125 113 126 153 172 172 179 176 174 176 183 185 184 196 195 194
59 45 32 34 71 95 124 119 133 145 153 162 167 173 174 175 183 176 184 192 193 190
64 54 51 45 98 102 91 118 132 143 152 152 157 169 174 173 176 180 181 189 189 187
82 75 74 63 86 110 103 109 127 136 143 151 157 166 173 166 170 179 172 168 174 175
133 118 86 78 77 105 114 116 120 140 142 142 159 162 167 171 159 150 153 174 184 174
150 138 119 105 90 90 101 102 112 132 151 155 162 175 171 178 167 155 138 128 155 155
153 149 134 128 115 103 119 99 90 133 134 150 163 166 175 172 177 163 138 125 150 152
160 147 141 129 128 128 110 98 89 112 143 127 142 183 171 156 160 159 145 141 154 147
172 163 156 149 150 134 121 105 99 98 130 129 125 131 179 187 184 178 162 153 156 158
181 169 163 164 162 156 141 103 117 119 126 124 127 116 127 139 157 170 174 167 163 153
194 179 180 177 176 174 166 142 145 139 128 120 124 132 131 134 131 145 152 164 172 174
192 188 188 187 187 183 182 161 156 161 154 141 131 129 138 145 149 149 159 155 155 164
198 191 186 184 189 197 198 192 161 166 165 165 156 147 143 147 147 151 158 165 165 165
Wind_Speed_850mb
12 12 17 16 13 5 8 13 13 26 31 30 29 30 33 36 36 38 38 38 37 41
12 10 16 19 11 7 13 14 14 22 30 33 30 31 32 32 31 36 40 38 35 40
12 11 14 14 12 12 10 15 17 22 28 33 35 33 34 31 33 43 39 38 36 35
10 13 14 15 12 14 14 15 19 21 28 33 35 37 40 36 38 43 35 34 34 37
9 12 15 23 16 15 12 16 16 23 23 31 35 38 37 37 37 40 44 34 32 36
7 9 14 24 24 22 20 24 19 21 24 28 35 38 38 36 41 43 31 25 31 39
10 11 17 19 27 33 28 25 22 25 22 27 29 33 32 40 51 39 27 25 35 51
13 19 23 22 19 22 21 23 25 19 24 23 25 22 31 43 51 37 40 36 44 50
23 28 23 21 22 19 18 18 20 17 19 15 16 33 28 31 48 46 37 40 48 39
28 31 25 22 28 20 16 16 13 21 29 16 17 20 41 41 36 34 36 41 58 49
29 36 30 27 25 22 16 10 14 23 23 22 29 34 33 32 31 45 44 53 62 59
27 41 38 34 30 26 21 14 19 21 22 26 31 31 30 30 34 43 58 61 51 50
23 39 36 40 34 29 23 17 21 25 21 19 26 30 30 32 37 44 59 52 40 37
28 30 35 42 38 33 27 20 21 27 28 24 21 26 30 33 38 43 46 43 41 40
Wind_Direction_850mb
40 41 28 24 18 97 156 139 140 167 170 168 169 170 173 181 183 186 189 193 201 184
28 18 21 30 31 82 125 113 126 153 172 172 179 176 174 176 183 185 184 196 195 194
59 45 32 34 71 95 124 119 133 145 153 162 167 173 174 175 183 176 184 192 193 190
64 54 51 45 98 102 91 118 132 143 152 152 157 169 174 173 176 180 181 189 189 187
82 75 74 63 86 110 103 109 127 136 143 151 157 166 173 166 170 179 172 168 174 175
133 118 86 78 77 105 114 116 120 140 142 142 159 162 167 171 159 150 153 174 184 174
150 138 119 105 90 90 101 102 112 132 151 155 162 175 171 178 167 155 138 128 155 155
153 149 134 128 115 103 119 99 90 133 134 150 163 166 175 172 177 163 138 125 150 152
160 147 141 129 128 128 110 98 89 112 143 127 142 183 171 156 160 159 145 141 154 147
172 163 156 149 150 134 121 105 99 98 130 129 125 131 179 187 184 178 162 153 156 158
181 169 163 164 162 156 141 103 117 119 126 124 127 116 127 139 157 170 174 167 163 153
194 179 180 177 176 174 166 142 145 139 128 120 124 132 131 134 131 145 152 164 172 174
192 188 188 187 187 183 182 161 156 161 154 141 131 129 138 145 149 149 159 155 155 164
198 191 186 184 189 197 198 192 161 166 165 165 156 147 143 147 147 151 158 165 165 165